Regional Weather Roundup
Issued by NWS

Home | Current Version | Previous Version | Graphics & Text | Print | Product List | Glossary On
Versions: 1 2 3 4 5 6 7 8 9 10 11 12 13 14 15 16 17 18 19 20 21 22 23 24 25 26 27 28 29 30 31 32 33 34 35 36 37 38 39 40 41 42 43 44 45 46 47 48 49 50
000
ASUS43 KMKX 270600
RWRWI

WISCONSIN REGIONAL WEATHER ROUNDUP
NATIONAL WEATHER SERVICE MILWAUKEE/SULLIVAN WI
100 AM CDT WED JUL 27 2016

NOTE: "FAIR" INDICATES FEW OR NO CLOUDS BELOW 12,000 FEET WITH NO
SIGNIFICANT WEATHER AND/OR OBSTRUCTIONS TO VISIBILITY.

WIZ001-002-006>008-014>016-023>028-270700-
NORTHWEST WISCONSIN

CITY           SKY/WX    TMP DP  RH WIND       PRES   REMARKS
SUPERIOR ARPT  CLOUDY    70  63  76 SW8       29.96R
ASHLAND        CLOUDY    71  69  93 SW5       29.97F
6HR MIN TEMP:  70; 6HR MAX TEMP:  83; 6HR PCP: TRACE;

HAYWARD        PTCLDY    68  66  93 S3        30.00S
6HR MIN TEMP:  67; 6HR MAX TEMP:  83; 6HR PCP:  0.08;

SIREN          MOCLDY    70  63  78 CALM      30.00S
CUMBERLAND     CLOUDY    66  63  88 SE3       30.01S
RICE LAKE      CLOUDY    68  65  88 CALM      30.03R
CHETEK         CLOUDY    71  66  85 CALM      30.01S
LADYSMITH      MOCLDY    68  63  83 CALM      30.03F
EAU CLAIRE     PTCLDY    73  68  84 CALM      29.99F
6HR MIN TEMP:  72; 6HR MAX TEMP:  86;

MENOMONIE      PTCLDY    73  67  82 CALM      30.00S
NEW RICHMOND   MOCLDY    70  64  80 CALM      30.00F
OSCEOLA        PTCLDY    69  63  82 CALM      30.02R
$$

WIZ003>005-009-010-017-018-270700-
NORTH CENTRAL WISCONSIN

CITY           SKY/WX    TMP DP  RH WIND       PRES   REMARKS
MANITOWISH WTR CLOUDY    64  64 100 CALM      30.02R
ARBOR VITAE    CLOUDY    69  64  85 W15G30    30.05R
WOODRUFF       CLOUDY    69  64  85 W15G30    30.05R
RHINELANDER    HVY RAIN  65  60  84 NW16G31   30.03R
6HR MIN TEMP:  65; 6HR MAX TEMP:  83; 6HR PCP:  0.15;

EAGLE RIVER    CLOUDY    63  63 100 CALM      30.01R
LAND O LAKES   MOCLDY    62  61  98 CALM      30.02R FOG
PHILLIPS       CLOUDY    66  65  94 N3        30.01F
TOMAHAWK       LGT RAIN  68  60  74 NW9G22    30.04R
MEDFORD        CLOUDY    72  68  89 W9        30.03R
MERRILL        PTCLDY    71  68  90 NW5       30.02R
$$

WIZ029-030-035-036-043>047-270700-
CENTRAL WISCONSIN

CITY           SKY/WX    TMP DP  RH WIND       PRES   REMARKS
WAUSAU         MOCLDY    75  67  76 SW7       29.99R
6HR MIN TEMP:  74; 6HR MAX TEMP:  83;

MOSINEE        CLOUDY    72  68  88 SW7       30.02R
MARSHFIELD     PTCLDY    73  67  81 W6        30.01S
6HR MIN TEMP:  71; 6HR MAX TEMP:  83;

STEVENS POINT  CLOUDY    71  66  85 SW3       30.02R
WAUPACA        CLEAR     73  70  91 CALM      29.99F
WAUTOMA        CLEAR     68  67  96 CALM      30.01S
6HR MIN TEMP:  68; 6HR MAX TEMP:  85;

WISC RAPIDS    CLEAR     73  65  75 SW6       30.02R
6HR MIN TEMP:  72; 6HR MAX TEMP:  86;

CAMP DOUGLAS   PTCLDY    68  66  94 NW3       30.00S
$$

WIZ011>013-019>022-031-037>040-048>050-270700-
NORTHEAST WISCONSIN

CITY           SKY/WX    TMP DP  RH WIND       PRES   REMARKS
ANTIGO         PTCLDY    70  66  89 CALM      30.01S
SHAWANO        CLEAR     76  67  76 SW5       29.97S
OCONTO         CLEAR     73  72  98 W5        29.94S
STURGEON BAY   PTCLDY    76  68  76 SW8       29.95S
6HR MIN TEMP:  75; 6HR MAX TEMP:  84;

GREEN BAY      CLEAR     73  70  90 SW6       29.96F
6HR MIN TEMP:  73; 6HR MAX TEMP:  83;

MANITOWOC      NOT AVBL
APPLETON       CLEAR     73  63  68 SW7       29.97F
CLINTONVILLE   CLEAR     73  64  73 SW5       29.98S
OSHKOSH        CLEAR     73  65  75 SW3       29.98F
6HR MIN TEMP:  73; 6HR MAX TEMP:  83;

$$

WIZ032>034-041-042-053>061-270700-
SOUTHWEST WISCONSIN

CITY           SKY/WX    TMP DP  RH WIND       PRES   REMARKS
LA CROSSE      CLEAR     75  71  87 E3        29.99S
6HR MIN TEMP:  74; 6HR MAX TEMP:  87;

SPARTA         CLEAR     65  65  97 CALM      30.02S
VIROQUA        CLEAR     68  67  95 SW3       30.03F
BOSCOBEL       CLEAR     67  66  97 CALM      30.00F FOG
6HR MIN TEMP:  67; 6HR MAX TEMP:  85;

PRAIRIE DU CHI CLEAR     69  65  89 CALM      30.00F
PLATTEVILLE    CLEAR     70  68  93 CALM      30.03S
$$

WIZ056-057-062-063-064-067-068-270700-
SOUTH CENTRAL WISCONSIN

CITY           SKY/WX    TMP DP  RH WIND       PRES   REMARKS
REEDSBURG      PTCLDY    69  68  98 CALM      30.01S
BARABOO/DELLS  CLEAR     70  63  80 SW6       30.02S
LONE ROCK      NOT AVBL
MINERAL POINT  CLEAR     72  64  78 W3        30.03S
MADISON        CLEAR     68  65  90 NW3       30.01S
6HR MIN TEMP:  67; 6HR MAX TEMP:  86;

MIDDLETON      CLEAR     67  67  99 CALM      30.02S
WATERTOWN      CLEAR     67  67  99 CALM      30.00F
MONROE         CLEAR     72  63  73 W6        30.02F
JANESVILLE     CLEAR     68  66  94 CALM      30.00F
$$

WIZ051-052-058>065-066-070>072-270700-
SOUTHEAST WISCONSIN

CITY           SKY/WX    TMP DP  RH WIND       PRES   REMARKS
MILWAUKEE      CLEAR     74  64  71 SW6       29.99F
6HR MIN TEMP:  74; 6HR MAX TEMP:  82;

WAUKESHA       CLEAR     68  63  83 CALM      30.02S
MILWAUKEE/TIMM CLEAR     70  59  68 CALM      30.01S
RACINE         CLEAR     71  63  75 W5        30.01F
6HR MIN TEMP:  71; 6HR MAX TEMP:  81;

BURLINGTON     CLEAR     64  63  95 CALM      30.01F
KENOSHA        CLEAR     68  63  84 CALM      30.01F
6HR MIN TEMP:  67; 6HR MAX TEMP:  82;

FOND DU LAC    CLEAR     70  66  87 CALM      30.00S
6HR MIN TEMP:  69; 6HR MAX TEMP:  84;

SHEBOYGAN      CLEAR     67  64  90 SW7       29.99S
6HR MIN TEMP:  66; 6HR MAX TEMP:  83; 6HR PCP: TRACE;

WEST BEND      CLEAR     66  63  88 CALM      30.00F
JUNEAU         CLEAR     68  66  92 CALM      30.02S
$$

LSZ147-162-270700-
LAKE SUPERIOR

STATION/POSITION TIME  TEMP    WIND        PRES    WAVE
                       AIR SEA DIR/SP/G            HT/PER
                 (UTC) (F)     (DEG/KT/KT) (MB)    (FT/S)
W MID LAKE BUOY  0450   65 62  340/  8/ 10 1013.3R   1
DEVILS ISLAND    0500   69     250/  7/  8 1014.2R
PORT WING        0500   75     160/  2/  4 1014.6S
SAXON HARBOR     0500   72     200/  3/  5 1014.2R
$$

LMZ867-665-643>646-270700-
LAKE MICHIGAN

STATION/POSITION TIME  TEMP    WIND        PRES    WAVE
                       AIR SEA DIR/SP/G            HT/PER
                 (UTC) (F)     (DEG/KT/KT) (MB)    (FT/S)
CHAMBERS ISLAND  0500   75     210/  4/  8 1013.5R
S GREEN BAY BUOY 0500   77 74  220/ 12/ 14   N/A
N MID LAKE BUOY  0450   72 69  220/ 14/ 17 1011.9F   3/ 4
NORTHPORT PIER   0500   78     280/  4/ 10 1013.2S
SISTER BAY       0536   76     280/ 10/ 12   N/A
ALGOMA LAKESHORE 0513          260/  9/ 12   N/A
KEWAUNEE LAKESHO 0500   75     240/  6/ 10 1014.0F
SHEBOYGAN LAKESH 0500   74     250/  5/  6 1015.5R
PORT WASHINGTON  0500   68     230/  1/  2 1016.3
ATWATER BUOY     0500   66 59  170/  6/  6 1017.4F
MILWAUKEE LAKESH 0510   73     200/  6/  6   N/A
S MID LAKE BUOY  0450   75 76  200/  6/  6 1015.7R   0
KENOSHA   LAKESH 0500   76     250/  2/  5 1015.9S
$$

TC  - TEMPERATURE IN CELSIUS
VSB - VISIBILITY IN STATUTE MILES
WCI - WIND CHILL INDEX
HX  - HEAT INDEX





USA.gov is the U.S. government's official web portal to all federal, state and local government web resources and services.